Wind_Speed
15 14 16 15 7 6 10 9 12 14 15 13 11 11 7 8 10 11 14 15 11 10 13 9 7 7 8 6 7 9 10 9 8 8 8 8 8 7 7 7 7 6 6 7 9 9 9 9 8
14 14 13 10 8 10 6 9 13 14 14 13 10 10 10 8 8 8 10 14 12 9 11 9 6 6 6 6 6 8 9 8 8 9 8 9 9 9 8 6 6 6 7 6 5 7 8 8 7
10 12 10 6 8 8 10 12 11 10 12 10 9 9 9 8 7 7 7 10 12 9 11 11 8 6 6 6 7 8 9 9 9 10 11 11 11 11 11 9 7 7 5 6 5 3 5 7 6
12 12 8 5 7 8 8 10 10 8 6 8 9 8 8 8 9 6 4 7 8 9 9 9 8 7 6 6 6 8 9 10 10 12 12 13 13 10 12 11 8 8 6 6 6 5 5 5 4
9 9 6 5 7 10 10 10 9 11 8 6 6 5 4 6 9 6 3 4 5 5 5 6 7 7 7 7 8 7 9 9 10 11 10 11 13 11 10 13 10 8 7 7 7 7 5 3 3
5 5 2 2 6 8 8 12 12 13 14 14 13 12 6 4 5 5 3 3 3 5 4 3 4 5 6 7 8 10 10 9 9 8 8 8 8 9 9 8 9 9 8 7 7 5 4 4 4
5 6 8 3 3 4 6 8 12 13 13 14 16 17 14 7 3 3 3 3 3 3 4 3 3 3 5 6 5 7 5 5 6 6 6 6 6 5 8 5 5 6 7 6 6 5 4 3 3
6 8 12 6 6 8 8 8 11 11 14 17 18 18 17 14 6 2 3 2 3 4 3 4 4 5 3 4 5 5 4 5 7 7 6 6 6 7 5 4 6 4 6 6 4 4 5 3 3
10 8 13 11 11 16 14 12 13 10 12 16 17 16 17 17 14 7 2 3 2 2 2 4 6 7 5 5 3 5 5 6 6 6 6 6 6 5 3 1 5 4 4 3 3 3 2 1 2
6 8 11 15 12 13 13 16 14 15 17 17 18 18 18 13 11 10 6 3 3 1 3 4 6 7 6 5 4 4 4 5 4 4 5 4 3 7 7 4 3 3 3 1 0 1 1 2 1
3 6 11 11 15 16 17 19 18 19 19 20 20 21 16 15 11 8 5 4 2 3 5 6 6 7 7 7 7 5 3 4 4 3 4 3 8 6 4 3 2 2 2 1 1 1 1 2 3
1 4 8 8 18 19 21 21 20 21 21 21 21 23 18 13 11 9 7 5 3 3 5 7 6 7 7 7 5 6 4 3 2 2 3 2 7 5 4 3 2 3 3 3 2 1 3 3 3
4 2 5 14 18 20 20 21 18 20 22 20 17 18 19 16 14 8 10 5 2 4 6 7 6 6 6 5 5 5 6 4 3 1 0 1 3 2 3 1 4 5 5 5 5 4 2 3 6
4 1 5 11 18 21 21 19 19 18 17 17 16 16 19 19 15 11 13 9 6 8 9 8 7 7 5 5 5 6 6 6 5 1 2 2 1 2 2 2 4 3 2 4 6 6 4 3 5
5 6 6 10 17 19 19 19 19 17 14 14 15 17 18 19 16 17 17 7 12 11 9 10 10 11 9 7 7 6 8 7 9 7 6 3 2 2 3 3 2 4 6 7 7 7 7 4 6
8 13 10 8 14 15 13 14 17 18 17 14 13 15 16 16 16 14 19 16 4 11 8 10 13 12 10 9 9 8 8 10 10 10 10 8 7 4 4 5 4 5 5 7 7 8 8 7 6
8 14 6 5 9 8 7 11 12 13 19 17 12 14 15 14 13 14 16 16 5 10 11 7 8 13 12 11 11 12 13 14 13 12 11 10 10 10 8 8 6 8 8 6 6 8 8 8 9
14 11 8 5 3 5 4 8 12 14 16 15 14 13 14 13 14 15 13 14 13 11 7 2 6 11 12 10 11 13 17 16 14 13 12 11 12 13 12 12 10 10 9 8 6 6 7 6 8
16 12 8 6 1 2 4 6 9 12 13 14 15 12 11 12 14 16 16 13 14 13 4 1 4 6 7 8 9 15 14 13 13 16 18 16 16 16 17 16 15 15 14 12 11 9 9 9 8
16 12 11 11 9 7 3 4 5 8 10 15 13 11 9 9 12 14 15 15 12 12 8 4 1 5 7 7 11 13 11 14 16 19 20 22 18 19 19 21 19 18 20 18 15 14 14 14 12
17 17 13 13 13 12 9 2 1 6 6 9 11 8 7 9 10 12 14 13 13 11 11 9 9 8 4 5 10 14 12 16 27 19 24 24 17 17 20 22 24 24 22 23 22 21 19 16 16
21 22 13 12 15 13 7 5 2 5 5 5 8 8 7 9 8 10 11 12 12 11 13 11 8 6 7 8 13 17 16 10 17 14 25 5 8 15 19 22 24 26 25 26 27 26 24 22 21
23 20 16 15 17 16 9 9 2 6 9 8 7 8 6 8 9 9 11 14 13 12 13 15 10 9 10 12 15 15 14 12 11 9 8 9 13 15 20 23 25 26 27 29 31 30 28 27 26
24 16 18 21 22 21 11 6 6 13 12 5 8 11 10 8 11 10 9 9 11 9 7 9 11 9 8 9 10 11 10 9 9 9 8 11 13 16 19 25 28 30 31 33 32 35 36 35 32
22 21 22 24 25 20 10 6 5 12 11 10 9 14 14 5 9 11 8 7 8 9 9 6 7 10 10 9 9 9 10 12 13 11 11 11 12 16 20 20 22 27 28 33 35 35 38 38 35
25 26 24 25 24 17 13 7 5 10 13 15 12 17 21 10 7 10 12 10 12 12 10 10 7 7 9 12 12 11 12 12 12 14 15 15 13 14 18 16 18 18 21 21 28 30 30 34 39
17 28 28 26 22 18 14 7 9 14 22 16 13 14 11 4 4 9 14 12 14 14 13 10 9 9 9 11 14 14 12 13 11 12 14 15 16 17 16 17 23 19 14 17 24 27 31 31 36
21 18 18 20 18 17 16 9 13 18 18 11 11 8 3 3 5 10 14 18 21 25 23 18 13 11 12 12 13 13 12 12 12 13 15 16 17 19 21 19 19 21 17 14 18 18 25 17 26
20 21 19 17 16 13 13 8 14 13 15 14 6 1 3 6 9 12 15 19 21 22 22 25 24 15 12 13 13 12 12 12 12 13 15 19 20 19 18 19 21 19 18 16 16 18 20 26 24
22 16 15 17 13 13 16 9 13 15 14 9 7 4 11 22 22 18 16 16 17 20 22 26 27 26 19 12 12 14 13 13 13 13 14 17 18 20 20 19 16 18 19 17 17 17 20 20 23
Wind_Direction
54 44 44 50 35 23 48 55 61 69 71 80 84 81 93 98 96 95 104 94 91 106 107 103 98 93 90 83 75 75 73 69 74 80 93 105 101 102 113 127 135 139 138 123 114 106 99 90 94
48 52 38 31 41 33 3 37 56 77 73 78 77 79 84 96 110 101 100 102 95 99 110 108 100 98 97 94 90 86 85 82 75 85 97 109 107 109 113 116 121 140 160 158 131 93 96 102 98
48 47 32 60 70 3 358 12 30 70 73 83 72 78 86 97 103 117 114 106 107 103 107 110 105 94 92 96 100 94 97 86 82 89 95 109 105 96 90 93 106 118 142 160 152 117 97 118 125
58 54 46 61 358 28 39 19 18 42 53 62 71 73 85 91 99 104 145 130 120 119 119 114 113 99 78 101 97 96 100 93 89 90 94 105 95 92 93 89 98 98 116 136 136 136 120 112 123
50 47 25 85 35 25 42 40 38 41 41 44 44 53 64 79 89 86 120 161 151 137 121 125 118 104 80 96 100 92 99 91 92 90 91 95 84 85 88 91 90 95 101 119 130 125 119 116 103
36 26 64 33 34 26 29 43 39 35 32 41 39 42 47 57 85 105 102 119 178 161 146 158 138 111 90 92 100 95 102 90 84 87 80 71 79 91 77 84 85 90 94 107 126 127 119 106 103
56 30 64 64 341 348 8 41 44 32 26 36 44 42 44 43 86 104 85 121 139 157 157 182 178 138 102 86 101 110 92 71 56 52 62 59 51 44 67 41 90 92 88 86 96 114 114 94 97
55 52 81 100 92 59 35 29 48 35 19 28 35 35 37 40 46 77 59 43 141 140 155 200 200 184 139 106 90 83 76 48 47 62 61 57 19 22 40 28 75 93 97 92 84 82 90 74 49
73 84 92 100 84 64 43 33 42 45 35 35 41 41 37 27 30 40 3 322 328 137 168 187 205 202 181 152 114 81 61 65 68 72 59 35 71 53 2 89 83 69 110 97 107 78 60 73 47
90 112 103 99 84 68 50 40 31 41 37 33 26 35 32 34 22 23 10 274 263 255 226 205 202 205 201 185 167 113 90 90 57 63 41 110 68 71 115 104 86 63 66 48 142 118 17 328 329
86 100 115 105 98 75 58 49 46 49 38 28 19 11 11 12 14 359 353 312 265 229 226 215 212 211 205 207 191 166 128 116 96 49 12 330 109 113 110 113 62 357 47 65 311 245 246 275 291
236 136 124 115 86 72 61 65 51 54 42 29 16 15 21 13 11 14 346 318 314 227 232 235 229 231 227 217 208 189 181 153 120 79 5 32 70 69 68 90 70 336 314 296 325 288 244 251 266
273 247 121 110 93 75 62 59 57 51 38 32 21 11 11 15 12 7 18 326 260 226 219 224 219 235 251 247 224 207 213 193 186 189 28 187 47 47 64 14 312 296 314 325 277 276 260 258 282
264 262 114 122 91 74 62 58 61 29 29 30 14 3 2 5 19 6 347 322 264 225 218 212 212 221 232 251 254 234 228 235 224 192 234 255 329 353 327 353 351 31 11 289 291 263 260 241 260
272 179 127 119 102 87 68 61 48 26 11 19 4 5 7 8 10 6 1 319 250 228 218 212 219 218 208 227 248 241 238 235 238 228 231 267 285 309 288 270 318 303 295 286 291 259 258 262 276
274 184 163 129 101 98 79 60 48 33 19 27 5 3 11 13 16 23 16 15 181 209 227 211 230 210 202 205 223 236 249 240 236 236 235 242 260 259 276 270 275 290 313 288 275 270 263 255 250
233 192 186 146 134 115 93 64 53 26 29 32 15 4 12 22 22 35 26 37 46 231 242 258 228 207 213 208 220 228 228 237 237 237 237 242 250 256 252 261 259 274 281 309 268 247 252 262 265
207 180 183 150 121 126 119 71 66 38 34 28 11 14 20 27 32 35 38 42 34 59 156 177 227 211 211 210 226 236 235 235 247 257 255 250 254 254 255 255 255 259 264 271 266 255 260 257 257
201 191 194 163 175 281 145 94 70 45 29 23 12 21 23 36 43 38 41 42 41 43 87 175 208 213 227 241 247 248 256 263 267 272 272 261 257 262 264 261 259 256 254 251 253 247 257 262 266
201 189 209 218 227 261 274 128 71 44 22 10 2 16 11 24 33 30 36 45 49 45 44 44 283 219 234 251 272 274 268 267 257 261 271 268 262 264 268 267 265 264 264 257 252 246 247 254 261
198 197 215 237 254 272 286 214 61 17 14 9 358 1 1 346 26 33 27 32 35 27 26 23 17 4 8 325 349 346 292 279 259 245 249 239 250 264 270 271 271 265 260 258 253 253 250 250 250
198 208 221 238 252 275 296 328 351 3 1 1 341 341 346 340 1 35 31 25 13 12 18 24 12 8 340 334 344 345 350 345 16 282 222 202 263 275 271 275 278 270 260 257 252 250 251 251 245
196 216 226 233 251 282 313 340 10 25 341 341 332 335 327 327 334 17 29 33 22 1 0 16 20 13 356 350 347 343 350 355 5 12 359 320 282 282 278 281 283 275 268 260 254 249 247 248 248
203 212 229 240 262 281 288 327 5 8 349 335 310 328 318 314 328 349 15 30 27 13 1 8 15 10 1 353 347 353 356 11 16 355 315 290 293 298 293 285 280 274 269 265 256 248 241 237 243
209 218 235 246 266 276 289 300 338 340 332 316 300 307 302 294 315 325 320 341 2 353 1 352 2 4 357 346 345 352 357 14 3 354 343 334 337 335 327 295 287 283 268 265 257 254 254 245 235
210 226 242 253 264 267 266 255 285 324 351 327 298 293 283 276 280 299 302 318 334 332 338 345 348 358 354 357 3 352 350 356 356 351 351 345 345 345 347 327 321 299 287 269 259 252 262 267 237
216 226 242 256 260 255 272 272 265 309 322 313 298 302 294 264 270 293 294 303 304 307 306 315 328 345 341 353 1 356 345 343 345 350 356 359 356 348 350 352 351 324 316 255 243 258 253 268 245
218 230 242 257 265 265 268 285 286 300 330 307 280 313 14 281 258 279 290 299 306 315 307 291 305 324 334 333 337 344 342 327 335 341 347 356 3 357 355 353 352 356 326 307 268 271 264 262 260
225 239 247 255 261 257 279 320 315 300 314 315 306 77 311 3 341 310 302 315 312 306 301 301 301 296 303 312 315 323 340 336 326 333 337 342 346 353 353 356 349 347 338 330 298 269 268 258 260
229 237 244 250 254 256 276 316 325 320 297 284 237 242 337 328 328 322 312 309 302 295 299 306 295 287 279 281 303 311 327 339 337 333 333 331 331 334 338 344 349 346 339 326 331 316 283 258 263
Height
5923 5920 5919 5920 5921 5917 5915 5914 5913 5912 5911 5910 5910 5910 5911 5910 5910 5913 5910 5910 5912 5913 5912 5913 5914 5914 5913 5912 5912 5912 5911 5910 5910 5909 5909 5909 5910 5910 5912 5912 5912 5912 5912 5913 5913 5913 5912 5913 5913
5925 5923 5922 5920 5919 5918 5917 5915 5914 5914 5912 5912 5911 5911 5911 5911 5911 5912 5912 5911 5913 5914 5913 5914 5915 5915 5914 5913 5913 5913 5913 5912 5911 5911 5911 5910 5910 5911 5912 5912 5912 5912 5912 5914 5915 5914 5914 5914 5914
5927 5925 5924 5922 5920 5920 5917 5915 5914 5914 5913 5913 5913 5912 5912 5912 5912 5912 5913 5913 5913 5915 5915 5916 5917 5916 5915 5914 5913 5913 5913 5913 5913 5912 5912 5912 5912 5911 5911 5912 5912 5912 5913 5914 5914 5915 5915 5915 5915
5928 5927 5926 5925 5922 5921 5919 5917 5916 5915 5915 5914 5913 5913 5913 5912 5911 5912 5913 5913 5914 5915 5915 5916 5917 5917 5916 5915 5914 5914 5914 5915 5914 5913 5913 5913 5912 5912 5912 5912 5912 5912 5913 5914 5914 5914 5915 5915 5916
5928 5928 5928 5926 5925 5923 5921 5919 5917 5916 5916 5915 5914 5914 5913 5912 5911 5913 5913 5914 5915 5915 5915 5916 5917 5917 5917 5916 5915 5915 5915 5915 5915 5914 5914 5913 5913 5913 5913 5913 5914 5914 5914 5914 5914 5914 5915 5915 5917
5931 5930 5929 5928 5927 5925 5922 5920 5919 5917 5917 5916 5915 5914 5913 5913 5913 5913 5914 5914 5914 5914 5915 5916 5916 5916 5916 5916 5916 5915 5915 5914 5915 5915 5914 5913 5914 5914 5914 5914 5915 5915 5914 5915 5915 5914 5915 5915 5916
5932 5931 5931 5929 5928 5926 5924 5922 5921 5919 5917 5917 5916 5914 5914 5914 5914 5914 5914 5914 5914 5914 5914 5915 5916 5916 5916 5916 5916 5916 5915 5914 5913 5914 5913 5914 5914 5913 5913 5914 5914 5915 5915 5914 5915 5915 5915 5915 5916
5933 5932 5931 5930 5929 5928 5926 5924 5924 5922 5919 5919 5918 5917 5917 5916 5915 5915 5915 5916 5915 5914 5914 5914 5915 5916 5916 5916 5916 5916 5915 5914 5913 5913 5913 5913 5913 5913 5913 5913 5913 5913 5914 5915 5915 5915 5915 5916 5916
5933 5933 5932 5931 5930 5930 5929 5927 5926 5925 5922 5921 5920 5919 5918 5917 5916 5915 5916 5916 5916 5915 5914 5914 5914 5915 5916 5916 5916 5915 5915 5915 5914 5913 5913 5912 5912 5913 5913 5914 5913 5914 5914 5915 5915 5914 5914 5915 5915
5934 5933 5932 5931 5932 5931 5931 5930 5926 5926 5923 5921 5919 5919 5917 5916 5914 5914 5914 5914 5915 5914 5915 5914 5914 5914 5915 5915 5915 5915 5914 5915 5914 5914 5913 5913 5913 5911 5913 5913 5914 5914 5915 5915 5915 5914 5915 5914 5914
5934 5934 5933 5932 5931 5933 5932 5931 5928 5927 5924 5922 5919 5918 5917 5915 5914 5913 5913 5913 5912 5913 5914 5914 5915 5914 5914 5915 5914 5914 5914 5914 5914 5914 5914 5913 5911 5913 5913 5913 5914 5914 5914 5915 5915 5915 5915 5915 5914
5935 5934 5934 5934 5933 5933 5933 5932 5931 5928 5925 5923 5920 5917 5915 5913 5913 5912 5911 5910 5911 5912 5913 5914 5915 5914 5914 5915 5915 5914 5913 5914 5914 5914 5914 5913 5912 5913 5913 5914 5914 5914 5913 5913 5913 5914 5914 5914 5914
5935 5935 5936 5935 5935 5933 5934 5933 5931 5929 5926 5924 5921 5917 5915 5912 5910 5909 5907 5908 5908 5909 5911 5912 5913 5914 5915 5915 5915 5915 5913 5913 5913 5913 5914 5914 5913 5913 5913 5914 5913 5913 5912 5912 5912 5913 5912 5912 5912
5935 5936 5936 5936 5935 5934 5933 5933 5931 5931 5928 5926 5922 5919 5916 5913 5910 5907 5905 5905 5905 5906 5908 5911 5912 5913 5914 5914 5915 5915 5914 5913 5912 5912 5913 5913 5913 5914 5913 5912 5912 5912 5911 5911 5911 5911 5912 5912 5911
5936 5936 5935 5935 5935 5934 5934 5935 5933 5932 5929 5927 5924 5921 5917 5914 5911 5908 5904 5901 5901 5904 5906 5908 5908 5910 5910 5912 5913 5913 5913 5911 5911 5910 5910 5911 5911 5912 5913 5912 5912 5911 5911 5910 5910 5910 5911 5911 5911
5934 5935 5935 5935 5936 5935 5936 5936 5934 5934 5930 5928 5925 5922 5919 5916 5912 5909 5905 5899 5897 5902 5904 5907 5906 5907 5907 5908 5909 5910 5911 5910 5909 5908 5907 5907 5909 5909 5910 5910 5910 5910 5910 5909 5909 5909 5909 5910 5910
5933 5934 5934 5935 5935 5935 5935 5935 5934 5934 5932 5929 5927 5924 5920 5917 5913 5910 5907 5903 5900 5900 5902 5903 5903 5904 5905 5905 5905 5906 5906 5906 5906 5907 5906 5906 5906 5906 5906 5908 5907 5908 5908 5908 5907 5907 5908 5908 5907
5932 5933 5934 5936 5936 5935 5934 5934 5933 5933 5932 5930 5928 5925 5922 5919 5915 5912 5909 5906 5904 5900 5901 5902 5902 5902 5902 5902 5902 5902 5902 5902 5905 5906 5906 5904 5904 5904 5903 5904 5906 5906 5906 5907 5906 5906 5907 5907 5906
5931 5932 5934 5934 5934 5934 5933 5932 5932 5932 5931 5929 5927 5925 5922 5920 5917 5913 5910 5907 5906 5905 5903 5903 5902 5901 5901 5900 5899 5900 5901 5904 5905 5904 5903 5900 5900 5901 5903 5901 5901 5902 5903 5904 5904 5904 5905 5905 5905
5930 5931 5932 5933 5933 5933 5932 5931 5931 5931 5930 5929 5927 5925 5922 5920 5916 5913 5911 5909 5908 5907 5906 5903 5902 5900 5899 5898 5900 5902 5902 5902 5902 5899 5897 5897 5896 5896 5897 5899 5898 5898 5900 5902 5901 5901 5902 5902 5903
5928 5930 5930 5931 5932 5932 5931 5931 5930 5930 5929 5928 5926 5924 5923 5920 5917 5915 5912 5911 5910 5909 5906 5904 5902 5901 5900 5899 5902 5901 5901 5898 5894 5893 5893 5888 5892 5892 5892 5893 5893 5893 5894 5897 5897 5897 5898 5899 5900
5926 5926 5929 5930 5930 5930 5930 5930 5929 5928 5928 5927 5925 5923 5922 5920 5918 5916 5914 5913 5912 5912 5909 5907 5905 5903 5901 5901 5901 5899 5896 5894 5886 5886 5888 5888 5890 5890 5890 5889 5888 5889 5889 5890 5890 5891 5893 5895 5895
5924 5925 5927 5928 5928 5928 5928 5927 5927 5927 5926 5926 5924 5921 5920 5918 5917 5917 5917 5916 5915 5913 5910 5907 5905 5903 5901 5900 5899 5898 5896 5895 5891 5889 5889 5890 5891 5889 5887 5885 5883 5883 5882 5883 5883 5884 5886 5887 5890
5921 5923 5925 5926 5926 5926 5927 5927 5926 5925 5924 5922 5921 5919 5918 5916 5916 5917 5917 5916 5914 5913 5910 5907 5905 5904 5903 5902 5901 5900 5899 5897 5893 5891 5890 5889 5887 5884 5881 5879 5877 5876 5875 5875 5875 5876 5878 5880 5882
5920 5922 5923 5924 5924 5925 5924 5925 5925 5924 5922 5920 5918 5916 5914 5916 5915 5914 5914 5913 5912 5912 5911 5908 5906 5904 5902 5901 5900 5897 5896 5892 5891 5890 5888 5885 5882 5880 5876 5873 5870 5868 5866 5864 5866 5868 5869 5871 5875
5918 5920 5921 5921 5921 5923 5921 5922 5924 5922 5921 5919 5917 5913 5911 5913 5913 5913 5913 5913 5912 5913 5910 5909 5906 5903 5901 5899 5896 5895 5892 5890 5889 5887 5884 5881 5879 5877 5874 5870 5866 5862 5860 5857 5858 5860 5862 5863 5868
5915 5917 5918 5918 5918 5919 5919 5921 5920 5919 5918 5915 5913 5910 5909 5910 5911 5912 5912 5911 5910 5910 5908 5908 5904 5902 5900 5896 5893 5892 5889 5889 5887 5885 5882 5878 5876 5873 5870 5865 5862 5858 5855 5854 5854 5857 5857 5856 5859
5912 5915 5916 5915 5916 5916 5917 5918 5918 5917 5914 5911 5909 5910 5909 5908 5908 5909 5910 5911 5910 5907 5906 5905 5901 5898 5896 5895 5893 5890 5887 5887 5885 5883 5880 5876 5872 5869 5866 5863 5859 5856 5854 5852 5852 5853 5852 5851 5852
5909 5911 5912 5913 5913 5913 5915 5917 5915 5914 5912 5910 5909 5908 5908 5908 5909 5910 5910 5908 5906 5904 5903 5902 5900 5896 5893 5892 5891 5888 5885 5884 5882 5880 5878 5873 5870 5866 5863 5861 5858 5855 5853 5850 5849 5848 5847 5846 5846
5905 5908 5909 5910 5911 5912 5912 5915 5912 5910 5908 5906 5906 5907 5906 5906 5906 5906 5905 5903 5902 5901 5899 5899 5898 5897 5893 5888 5887 5886 5883 5881 5879 5877 5875 5873 5870 5867 5864 5860 5857 5854 5851 5848 5846 5843 5842 5840 5840